Location: Krasnoyarskiy Pitomnik
(51.1333°N, 71.6167°E)
Time: 04:16:47
(UTC+00:00)

Transit 2A - Pass Details

Date: 16 April 2024
Orbit: 594 x 958 km, 66.7° (Epoch: 21 May)

Event Time Altitude Azimuth Distance (km) Brightness Sun altitude
Rises 05:34:16 0° 278° (W) 2,929 8.7 44.4°
Reaches altitude 10° 05:37:12 10° 299° (WNW) 2,075 8.0 44.7°
Maximum altitude 05:40:19 17° 341° (NNW) 1,704 7.6 45.0°
Drops below altitude 10° 05:43:36 10° 23° (NNE) 2,217 8.3 45.2°
Sets 05:46:54 0° 43° (NE) 3,222 9.1 45.5°
